JCSAT-17

Last updated on Fri Jul 11 2025 00:02:45 GMT+0000 (Coordinated Universal Time)

1 45245U 20013A 25190.85901149 -.00000298 00000+0 00000+0 0 9998 2 45245 5.4322 353.4865 0004084 123.7055 256.0914 1.00270820 19806
UTC large
Height (km)
Speed (km/s)
/
Latitude / Longitude
Inclination (degrees)
Orbital Period (minutes)
Azimuth
Elevation
Range (km)
Doppler Factor

Next 0 passes for location: London (51.5072 / 0.1276)

Sorry there are no passes over London.